Погода в Монреале

Италия     38°04′40″N   13°17′16″E
темп.,
°C
ветер,
м/с
пор.,
м/с
влажн.,
%
обл.,
%
осадки,
мм/ч
давл.,
гПа
погр.,
м
16 апреля, пт
пт1623:00+9ююв1196100 1.2 101750
02:00+8в2298100 2.8 1014114
05:00+9в2397100 5.1 1012131
08:00+9в2395100 5.6 1011152
11:00+13всв3480100 0.0 1010696
14:00+12всв458261 0.3 1009758
17:00+10всв4693100 0.3 1009438
20:00+9всв239390 0.3 1009298
17 апреля, сб
сб1723:00+9св239293 0.0 1011236
02:00+8ссв2393100 0.1 1010186
05:00+8ссв2396100 0.2 1008207
08:00+8св2396100 0.4 1009278
11:00+10ссв118690 0.3 1010396
14:00+12ссз227390 0.6 1009927
17:00+12сз337557 0.3 1010780
20:00+7сз118864 0.4 101235
18 апреля, вс
вс1823:00+8зсз2390100 0.1 1014147
02:00+7зсз119334 0.6 101439
05:00+5юз11939 0.0 101413
08:00+8ююз22895 0.0 1015136
11:00+10юз457890 0.8 10151025
14:00+10зюз577892 2.4 10151237
17:00+9з578464 1.8 1015981
20:00+6юз479447 2.4 1016227
19 апреля, пн
пн1923:00+5ю369599 0.9 1016251
02:00+4ююз339631 1.6 101653
05:00+4ююз229331 0.0 101631
08:00+6зюз2594100 0.3 1017254
11:00+10сз698353 1.1 10171041
14:00+12зсз68675 2.2 10171281
17:00+12зсз47613 0.0 10171185
20:00+7юз22844 0.0 101814
20 апреля, вт
вт2023:00+6ю22947 0.0 102036
02:00+6ю229419 0.0 101930
05:00+7ю229399 0.0 101834
08:00+9ю2388100 0.0 1018146
11:00+14ююз345499 0.0 1017895
14:00+17юз464642 0.0 10161450
17:00+16ю354810 0.0 10151160
20:00+10юв2267100 0.0 101520